Regional Weather Roundup
Issued by NWS Sterling, VA

Home | Current Version | Previous Version | Text Only | Print | Product List | Glossary Off
Versions: 1 2 3 4 5 6 7 8 9 10 11 12 13 14 15 16 17 18 19 20 21 22 23 24 25 26 27

000
ASUS41 KLWX 241811
RWRLWX

REGIONAL WEATHER ROUNDUP
NATIONAL WEATHER SERVICE BALTIMORE MD/WASHINGTON DC
200 PM EDT SUN SEP 24 2017

Note: "FAIR" indicates few or no clouds below 12,000 feet
with no significant weather and/or obstructions to visibility.
 TC=TEMPERATURE CELSIUS

 * =Non NWS site. Station does not report precipitation (e.g. rain,
    snow, etc.), thunder, or fog.

DCZ001-MDZ009-015-VAZ040>042-051-053>054-241900-
WASHINGTON METRO

CITY           SKY/WX    TMP DP  RH WIND       PRES   REMARKS
WASHINGTON NAT MOSUNNY   90  65  43 E6        30.06F HX  92
DULLES         MOSUNNY   87  66  49 NE7       30.08F
ANDREWS AFB    SUNNY     86  64  47 N3        30.06F
FT BELVOIR     SUNNY     88  63  42 CALM      30.06F
QUANTICO       SUNNY     86  65  49 E5        30.07F
COLLEGE PARK*  SUNNY     87  65  46 E3        30.06F
LEESBURG*      SUNNY     88  66  48 NE10      30.09F HX  90
MANASSAS*      SUNNY     89  65  44 NE6       30.07F HX  91
GAITHERSBURG*  SUNNY     86  67  52 CALM      30.09F

$$

MDZ006>007-011-014-241900-
BALTIMORE METRO

CITY           SKY/WX    TMP DP  RH WIND       PRES   REMARKS
BWI AIRPORT    MOSUNNY   89  63  41 NE8       30.06F HX  90
MD SCIENCE CTR   N/A     90  64  42 MISG      30.05F HX  91
MARTIN STATE   MOSUNNY   86  72  62 SE7       30.08F HX  92
ANNAPOLIS      SUNNY     87  66  49 CALM      30.06F
FORT MEADE*      N/A     86  63  45 E6        30.09F

$$

MDZ012-015-019>023-241900-
MARYLAND EASTERN SHORE

CITY           SKY/WX    TMP DP  RH WIND       PRES   REMARKS
OCEAN CITY     SUNNY     78  67  68 E7        30.07F
SALISBURY      SUNNY     87  62  43 NE10      30.05F
CAMBRIDGE*     SUNNY     86  63  45 VRB5      30.05F
EASTON*        MOSUNNY   90  61  37 E8        30.09F

$$

MDZ017>025-241900-
SOUTHERN MARYLAND

CITY           SKY/WX    TMP DP  RH WIND       PRES   REMARKS
PATUXENT RIVER PTSUNNY   85  64  49 VRB5      30.06F
ST INIGOES     SUNNY     87  61  41 NE6       30.05F
LEONARDTOWN*   SUNNY     82  64  54 N3        30.08F

$$

MDZ003>005-241900-
NORTH CENTRAL MARYLAND

CITY           SKY/WX    TMP DP  RH WIND       PRES   REMARKS
FREDERICK*     SUNNY     90  59  35 NE6       30.10F
HAGERSTOWN APT SUNNY     88  65  46 VRB3      30.10F HX  90
WESTMINSTER*   SUNNY     86  64  48 NE6       30.10F

$$

MDZ501>502-241900-
WESTERN MARYLAND

CITY           SKY/WX    TMP DP  RH WIND       PRES   REMARKS
OAKLAND*       MOSUNNY   75  59  57 E5        30.21F
CUMBERLAND*    MOSUNNY   88  61  40 CALM      30.15F

$$

VAZ025>031-241900-
SHENANDOAH VALLEY

CITY           SKY/WX    TMP DP  RH WIND       PRES   REMARKS
WINCHESTER*    SUNNY     84  63  48 N6        30.11F
FRONT ROYAL*   SUNNY     84  63  48 E6        30.10F
LURAY*         SUNNY     86  59  39 NE7       30.11F
NEW MARKET*    SUNNY     88  56  34 N9G23     30.10F
STAUNTON*      SUNNY     84  60  44 N8        30.14F
WAYNESBORO*    SUNNY     83  61  48 N6        30.14F

$$

WVZ021-048>050-054>055-241900-
EASTERN WEST VIRGINIA PANHANDLE

CITY           SKY/WX    TMP DP  RH WIND       PRES   REMARKS
MARTINSBURG    SUNNY     88  63  43 NE9       30.09F
PETERSBURG*    SUNNY     89  62  39 E5        30.12F HX  90

$$

VAZ036>039-050-241900-
CENTRAL FOOTHILLS

CITY           SKY/WX    TMP DP  RH WIND       PRES   REMARKS
CHARLOTTESVILL SUNNY     89  63  41 E9        30.09F HX  90
CULPEPER*      MOSUNNY   88  64  45 CALM      30.08F
ORANGE*        SUNNY     86  63  45 NE7       30.08F
GORDONSVILLE*  SUNNY     87  66  49 E8        30.08F
WARRENTON*     SUNNY     90  58  34 N5        30.07F

$$

VAZ055>057-241900-
NORTH AND CENTRAL PIEDMONT

CITY           SKY/WX    TMP DP  RH WIND       PRES   REMARKS
FREDERICKSBRG* SUNNY     87  63  44 NE5       30.06F
STAFFORD*      SUNNY     88  62  40 E8        30.11F

$$

NCZ024-NYZ072-PAZ021-071-VAZ022-071-241900-
OTHER REGIONAL OBSERVATIONS

CITY           SKY/WX    TMP DP  RH WIND       PRES   REMARKS
NEW YORK CITY  SUNNY     90  64  42 VRB3      30.07F HX  91
PHILADELPHIA   MOSUNNY   90  63  40 E12       30.04F HX  91
PITTSBURGH     PTSUNNY   88  61  40 E8        30.14F
ROANOKE        PTSUNNY   85  58  39 VRB3      30.13F
RICHMOND       PTSUNNY   89  61  38 NE10      30.05F
RALEIGH        PTSUNNY   85  62  46 NE10      30.06F

$$

ANZ530>537-241900-
MARINE OBSERVATIONS

STATION/POSITION TIME  TEMP    WIND        PRES
                       AIR SEA DIR/SP/G
                 (UTC) (F)     (DEG/KT/KT) (MB)
THOMAS PT LIGHT  1800   79 76  360/  5/  5   N/A
BALT KEY BRIDGE  1742   80     160/  7/  7 1017.9F
COVE POINT       1742   76     350/ 11/ 13 1018.6F
LEWISETTA        1742   79 78  100/  2/  3 1017.9F
SOLOMONS ISLAND  1742   82 77   10/  5/  6 1017.4F
PINEY POINT      1748          320/  5/  6   N/A

$$





USA.gov is the U.S. government's official web portal to all federal, state and local government web resources and services.